TimeEDT,TemperatureF,Dew PointF,Humidity,Sea Level PressureIn,VisibilityMPH,Wind Direction,Wind SpeedMPH,Gust SpeedMPH,PrecipitationIn,Events,Conditions,WindDirDegrees,DateUTC
12:23 AM,66.2,64.4,94,29.77,4.0,SSE,15.0,-,0.00,Rain-Thunderstorm,Light Rain,160,2012-10-20 04:23:00
12:45 AM,68.0,66.2,94,29.76,8.0,SSW,9.2,18.4,0.01,Rain-Thunderstorm,Light Rain,210,2012-10-20 04:45:00
12:53 AM,68.0,66.0,93,29.76,9.0,West,9.2,-,0.01,Rain-Thunderstorm,Light Rain,260,2012-10-20 04:53:00
1:24 AM,68.0,64.4,88,29.75,10.0,SSW,5.8,-,0.00,,Overcast,200,2012-10-20 05:24:00
1:40 AM,68.0,64.4,88,29.74,9.0,South,9.2,-,0.00,,Overcast,170,2012-10-20 05:40:00
1:53 AM,69.1,66.9,93,29.73,7.0,South,10.4,-,0.00,,Overcast,180,2012-10-20 05:53:00
2:18 AM,69.8,66.2,88,29.71,9.0,South,11.5,-,N/A,,Scattered Clouds,190,2012-10-20 06:18:00
2:53 AM,69.1,64.9,87,29.70,8.0,SSW,19.6,27.6,0.01,Rain,Light Rain,200,2012-10-20 06:53:00
3:53 AM,68.0,64.0,87,29.70,10.0,SSW,12.7,21.9,0.01,Rain,Light Rain,200,2012-10-20 07:53:00
4:29 AM,68.0,64.4,88,29.73,6.0,SW,9.2,-,0.01,Rain,Light Rain,230,2012-10-20 08:29:00
4:53 AM,66.9,64.9,93,29.71,9.0,South,8.1,-,0.02,,Overcast,190,2012-10-20 08:53:00
5:02 AM,66.2,64.4,94,29.71,8.0,South,6.9,-,N/A,,Overcast,170,2012-10-20 09:02:00
5:53 AM,66.0,64.0,93,29.69,4.0,Calm,Calm,-,0.01,Rain,Light Rain,0,2012-10-20 09:53:00
6:26 AM,66.2,64.4,94,29.69,2.0,South,3.5,-,0.00,Rain,Light Rain,180,2012-10-20 10:26:00
6:53 AM,66.0,64.0,93,29.69,2.0,SSE,3.5,-,0.00,,Overcast,160,2012-10-20 10:53:00
7:46 AM,66.2,64.4,94,29.68,1.0,Calm,Calm,-,N/A,,Overcast,0,2012-10-20 11:46:00
7:53 AM,66.0,64.9,96,29.69,1.0,Calm,Calm,-,N/A,,Overcast,0,2012-10-20 11:53:00
8:40 AM,66.2,64.4,94,29.69,1.0,South,5.8,-,N/A,,Overcast,170,2012-10-20 12:40:00
8:51 AM,66.2,64.4,94,29.69,3.0,South,6.9,-,N/A,,Overcast,180,2012-10-20 12:51:00
8:53 AM,66.0,64.9,96,29.70,3.0,South,8.1,-,N/A,,Overcast,190,2012-10-20 12:53:00
9:39 AM,64.4,64.4,100,29.69,1.0,South,10.4,-,N/A,,Overcast,170,2012-10-20 13:39:00
9:53 AM,64.9,64.0,97,29.68,1.0,South,10.4,-,N/A,,Overcast,180,2012-10-20 13:53:00
10:53 AM,66.0,64.0,93,29.69,1.0,South,9.2,-,N/A,,Overcast,190,2012-10-20 14:53:00
11:19 AM,66.2,64.4,94,29.68,3.0,SSW,15.0,18.4,N/A,,Overcast,210,2012-10-20 15:19:00
11:53 AM,66.0,64.0,93,29.67,4.0,SSW,11.5,-,N/A,,Overcast,200,2012-10-20 15:53:00
12:46 PM,64.4,62.6,94,29.65,6.0,SW,10.4,-,N/A,,Overcast,220,2012-10-20 16:46:00
12:53 PM,64.9,62.1,90,29.66,7.0,WSW,10.4,-,N/A,,Overcast,240,2012-10-20 16:53:00
1:27 PM,69.8,62.6,78,29.64,10.0,West,6.9,-,N/A,,Mostly Cloudy,260,2012-10-20 17:27:00
1:53 PM,70.0,60.1,71,29.65,10.0,SW,5.8,-,N/A,,Clear,230,2012-10-20 17:53:00
2:53 PM,71.6,59.0,64,29.64,10.0,SSW,11.5,-,N/A,,Clear,200,2012-10-20 18:53:00
3:53 PM,64.9,59.0,81,29.65,10.0,SSW,15.0,-,N/A,,Clear,200,2012-10-20 19:53:00
4:30 PM,62.6,59.0,88,29.67,8.0,SSW,11.5,-,N/A,,Partly Cloudy,210,2012-10-20 20:30:00
4:53 PM,62.1,59.0,90,29.66,7.0,South,10.4,-,N/A,,Mostly Cloudy,190,2012-10-20 20:53:00
5:01 PM,62.6,57.2,82,29.66,8.0,SSW,8.1,-,N/A,,Scattered Clouds,210,2012-10-20 21:01:00
5:53 PM,62.1,57.0,84,29.67,8.0,SW,8.1,-,N/A,,Scattered Clouds,220,2012-10-20 21:53:00
6:53 PM,60.1,55.9,86,29.68,8.0,SSW,8.1,-,N/A,,Clear,210,2012-10-20 22:53:00
7:53 PM,59.0,55.9,90,29.70,6.0,SSW,4.6,-,N/A,,Clear,210,2012-10-20 23:53:00
8:53 PM,59.0,55.9,90,29.72,6.0,SW,6.9,-,N/A,,Clear,220,2012-10-21 00:53:00
9:53 PM,60.1,55.9,86,29.73,10.0,SW,8.1,-,N/A,,Clear,230,2012-10-21 01:53:00
10:53 PM,57.9,52.0,81,29.75,10.0,WSW,6.9,-,0.01,,Clear,240,2012-10-21 02:53:00
11:53 PM,55.9,46.9,72,29.75,10.0,WSW,6.9,-,N/A,,Clear,240,2012-10-21 03:53:00